TGL9304 EGPH-LFBZ

Flight info

Callsign TGL9304
Flight time 1h 58m
Altitude 41000
Route TLA DCT ODIGI DCT DCS DCT LAKEY DCT VAMEB DCT CROFT DCT UTUXA DCT VIDOK DCT WUGWA DCT LUMOG DCT ENOBU DCT CNA DCT BMC DCT MAGEC
Aircraft B77L/H-SDE1E2E3FGHIJ2J3J4J5M1RWXY/LB1D1

Departure

Time 2026-04-23 08:07
Airport Edinburgh Airport (EGPH)

Arrival

Time 2026-04-23 10:06
Airport Biarritz Pays Basque airport (LFBZ)
Time Latitude Longitude Altitude Speed Heading
2026-04-23 07:33 55.95195 -3.35532 120 ft 0 kts 28°
2026-04-23 07:49 55.95194 -3.35533 121 ft 1 kts 28°
2026-04-23 07:49 55.95176 -3.35550 116 ft 4 kts 17°
2026-04-23 07:49 55.95158 -3.35554 116 ft 4 kts 329°
2026-04-23 07:50 55.95143 -3.35526 116 ft 4 kts 298°
2026-04-23 07:50 55.95136 -3.35501 116 ft 0 kts 298°
2026-04-23 07:57 55.95136 -3.35502 121 ft 1 kts 298°
2026-04-23 07:57 55.95153 -3.35556 117 ft 7 kts 298°
2026-04-23 07:57 55.95181 -3.35649 117 ft 10 kts 298°
2026-04-23 07:58 55.95219 -3.35771 116 ft 12 kts 300°
2026-04-23 07:58 55.95257 -3.35890 117 ft 12 kts 264°
2026-04-23 07:58 55.95218 -3.36033 116 ft 14 kts 239°
2026-04-23 07:58 55.95164 -3.36195 116 ft 16 kts 239°
2026-04-23 07:59 55.95101 -3.36382 116 ft 19 kts 239°
2026-04-23 07:59 55.95030 -3.36590 117 ft 21 kts 239°
2026-04-23 07:59 55.94952 -3.36820 115 ft 23 kts 239°
2026-04-23 07:59 55.94867 -3.37070 116 ft 24 kts 239°
2026-04-23 08:00 55.94777 -3.37338 117 ft 26 kts 239°
2026-04-23 08:00 55.94683 -3.37613 115 ft 22 kts 239°
2026-04-23 08:00 55.94618 -3.37807 117 ft 19 kts 239°
2026-04-23 08:00 55.94544 -3.38023 116 ft 21 kts 239°
2026-04-23 08:01 55.94464 -3.38259 115 ft 23 kts 239°
2026-04-23 08:01 55.94409 -3.38423 116 ft 14 kts 238°
2026-04-23 08:01 55.94358 -3.38572 116 ft 12 kts 239°
2026-04-23 08:01 55.94312 -3.38708 117 ft 14 kts 239°
2026-04-23 08:02 55.94282 -3.38800 118 ft 5 kts 246°
2026-04-23 08:02 55.94293 -3.38868 115 ft 7 kts 309°
2026-04-23 08:02 55.94315 -3.38896 117 ft 0 kts 328°
2026-04-23 08:06 55.94341 -3.38925 118 ft 9 kts 328°
2026-04-23 08:06 55.94408 -3.38967 116 ft 12 kts 19°
2026-04-23 08:06 55.94444 -3.38888 114 ft 0 kts 59°
2026-04-23 08:07 55.94492 -3.38744 114 ft 51 kts 59°
2026-04-23 08:07 55.94887 -3.37578 156 ft 160 kts 59°
2026-04-23 08:07 55.95483 -3.35788 1290 ft 168 kts 60°
2026-04-23 08:07 55.96088 -3.34057 2740 ft 166 kts 54°
2026-04-23 08:08 55.96997 -3.32503 3372 ft 200 kts 40°
2026-04-23 08:08 55.98141 -3.30776 3823 ft 238 kts 42°
2026-04-23 08:08 55.99450 -3.28714 4645 ft 259 kts 43°
2026-04-23 08:08 56.00825 -3.26521 5538 ft 270 kts 44°
2026-04-23 08:09 56.02239 -3.24250 5995 ft 275 kts 44°
2026-04-23 08:09 56.03675 -3.21935 6002 ft 279 kts 44°
2026-04-23 08:09 56.04967 -3.19422 5985 ft 272 kts 63°
2026-04-23 08:09 56.05427 -3.16201 6004 ft 269 kts 92°
2026-04-23 08:10 56.05258 -3.12910 6010 ft 266 kts 99°
2026-04-23 08:10 56.04721 -3.09849 5994 ft 263 kts 124°
2026-04-23 08:10 56.02008 -3.05506 6006 ft 266 kts 143°
2026-04-23 08:11 56.00554 -3.03468 5997 ft 264 kts 142°
2026-04-23 08:11 55.99121 -3.01455 5984 ft 260 kts 142°
2026-04-23 08:11 55.97672 -2.99570 5980 ft 256 kts 153°
2026-04-23 08:11 55.95937 -2.98876 6002 ft 261 kts 181°
2026-04-23 08:12 55.94171 -2.99616 6004 ft 264 kts 200°
2026-04-23 08:12 55.92486 -3.00997 6004 ft 268 kts 205°
2026-04-23 08:12 55.90847 -3.02447 5991 ft 265 kts 205°
2026-04-23 08:12 55.89203 -3.03885 5985 ft 262 kts 204°
2026-04-23 08:13 55.87564 -3.05285 5989 ft 261 kts 204°
2026-04-23 08:13 55.85920 -3.06658 5996 ft 261 kts 203°
2026-04-23 08:13 55.84251 -3.07935 6113 ft 262 kts 198°
2026-04-23 08:13 55.82517 -3.08917 7170 ft 262 kts 195°
2026-04-23 08:14 55.80757 -3.09844 8419 ft 266 kts 195°
2026-04-23 08:14 55.78960 -3.10788 9651 ft 272 kts 196°
2026-04-23 08:14 55.77127 -3.11759 10808 ft 279 kts 196°
2026-04-23 08:14 55.75224 -3.12776 11541 ft 304 kts 196°
2026-04-23 08:15 55.73092 -3.13923 12119 ft 332 kts 197°
2026-04-23 08:15 55.70842 -3.15141 13353 ft 342 kts 197°
2026-04-23 08:15 55.68543 -3.16390 14719 ft 348 kts 197°
2026-04-23 08:15 55.66207 -3.17663 15986 ft 354 kts 197°
2026-04-23 08:16 55.63827 -3.18958 17222 ft 361 kts 198°
2026-04-23 08:16 55.61404 -3.20279 18452 ft 368 kts 198°
2026-04-23 08:16 55.58934 -3.21625 19558 ft 375 kts 198°
2026-04-23 08:16 55.56417 -3.22993 20598 ft 382 kts 198°
2026-04-23 08:17 55.53883 -3.24369 21634 ft 389 kts 198°
2026-04-23 08:17 55.51272 -3.25784 22670 ft 396 kts 197°
2026-04-23 08:17 55.48608 -3.27226 23661 ft 404 kts 197°
2026-04-23 08:17 55.45894 -3.28693 24594 ft 411 kts 197°
2026-04-23 08:18 55.43144 -3.30177 25530 ft 415 kts 197°
2026-04-23 08:18 55.40372 -3.31671 26440 ft 420 kts 197°
2026-04-23 08:18 55.37550 -3.33190 27293 ft 427 kts 198°
2026-04-23 08:18 55.34690 -3.34728 28114 ft 433 kts 198°
2026-04-23 08:19 55.31828 -3.36264 28994 ft 438 kts 198°
2026-04-23 08:19 55.28906 -3.37830 29874 ft 443 kts 198°
2026-04-23 08:19 55.25938 -3.39418 30663 ft 449 kts 198°
2026-04-23 08:19 55.22922 -3.40957 31327 ft 455 kts 194°
2026-04-23 08:20 55.19778 -3.41903 31972 ft 461 kts 187°
2026-04-23 08:20 55.16552 -3.42199 32611 ft 466 kts 180°
2026-04-23 08:20 55.13299 -3.41845 33142 ft 472 kts 174°
2026-04-23 08:20 55.10021 -3.41206 33759 ft 475 kts 174°
2026-04-23 08:21 55.06784 -3.40536 34533 ft 473 kts 174°
2026-04-23 08:21 55.03525 -3.39872 35207 ft 472 kts 174°
2026-04-23 08:21 55.00256 -3.39232 35853 ft 471 kts 174°
2026-04-23 08:21 54.97004 -3.38619 36486 ft 470 kts 174°
2026-04-23 08:22 54.93765 -3.38023 37170 ft 468 kts 174°
2026-04-23 08:22 54.90523 -3.37432 37806 ft 468 kts 175°
2026-04-23 08:22 54.87277 -3.36842 38351 ft 469 kts 174°
2026-04-23 08:22 54.84036 -3.36253 38935 ft 468 kts 175°
2026-04-23 08:23 54.80793 -3.35662 39449 ft 468 kts 175°
2026-04-23 08:23 54.77606 -3.35083 39941 ft 466 kts 174°
2026-04-23 08:23 54.74396 -3.34329 40415 ft 465 kts 169°
2026-04-23 08:23 54.71253 -3.33017 40877 ft 465 kts 164°
2026-04-23 08:24 54.68200 -3.31232 41332 ft 464 kts 158°
2026-04-23 08:24 54.65223 -3.29024 41541 ft 468 kts 156°
2026-04-23 08:24 54.59238 -3.24431 41510 ft 469 kts 156°
2026-04-23 08:25 54.53355 -3.19957 41504 ft 462 kts 156°
2026-04-23 08:25 54.47461 -3.15546 41512 ft 462 kts 156°
2026-04-23 08:26 54.41563 -3.11162 41514 ft 462 kts 156°
2026-04-23 08:26 54.35658 -3.06784 41511 ft 463 kts 156°
2026-04-23 08:27 54.29742 -3.02409 41512 ft 463 kts 156°
2026-04-23 08:27 54.23854 -2.98068 41515 ft 464 kts 156°
2026-04-23 08:28 54.17874 -2.93689 41509 ft 465 kts 156°
2026-04-23 08:28 54.11919 -2.89347 41517 ft 466 kts 156°
2026-04-23 08:29 54.05962 -2.85011 41515 ft 466 kts 156°
2026-04-23 08:29 53.99992 -2.80679 41510 ft 466 kts 156°
2026-04-23 08:30 53.94019 -2.76359 41514 ft 467 kts 156°
2026-04-23 08:30 53.88036 -2.72042 41509 ft 467 kts 156°
2026-04-23 08:31 53.82095 -2.67768 41510 ft 467 kts 156°
2026-04-23 08:31 53.76108 -2.63474 41513 ft 467 kts 156°
2026-04-23 08:32 53.70117 -2.59188 41512 ft 468 kts 156°
2026-04-23 08:32 53.64060 -2.54869 41517 ft 468 kts 156°
2026-04-23 08:33 53.57916 -2.51279 41521 ft 468 kts 162°
2026-04-23 08:33 53.51679 -2.48100 41511 ft 468 kts 162°
2026-04-23 08:34 53.45447 -2.44914 41507 ft 469 kts 162°
2026-04-23 08:34 53.39257 -2.41718 41498 ft 459 kts 162°
2026-04-23 08:35 53.33126 -2.38548 41512 ft 464 kts 162°
2026-04-23 08:35 53.26956 -2.35367 41516 ft 471 kts 162°
2026-04-23 08:36 53.20662 -2.32135 41515 ft 475 kts 162°
2026-04-23 08:36 53.14337 -2.28898 41510 ft 476 kts 162°
2026-04-23 08:37 53.08008 -2.25668 41500 ft 476 kts 162°
2026-04-23 08:37 53.01662 -2.22451 41505 ft 478 kts 163°
2026-04-23 08:38 52.95150 -2.20155 41500 ft 479 kts 169°
2026-04-23 08:38 52.88577 -2.18264 41496 ft 479 kts 169°
2026-04-23 08:39 52.81994 -2.16344 41498 ft 481 kts 169°
2026-04-23 08:39 52.75411 -2.14382 41490 ft 481 kts 169°
2026-04-23 08:40 52.68833 -2.12414 41486 ft 480 kts 169°
2026-04-23 08:40 52.62231 -2.10446 41490 ft 482 kts 169°
2026-04-23 08:41 52.55627 -2.08489 41487 ft 482 kts 169°
2026-04-23 08:41 52.49031 -2.06538 41501 ft 483 kts 169°
2026-04-23 08:42 52.42416 -2.04588 41495 ft 482 kts 169°
2026-04-23 08:42 52.36935 -2.02968 41495 ft 481 kts 169°
2026-04-23 08:43 52.30336 -2.01003 41491 ft 482 kts 169°
2026-04-23 08:43 52.23724 -1.99037 41479 ft 482 kts 169°
2026-04-23 08:44 52.17136 -1.97087 41478 ft 481 kts 169°
2026-04-23 08:44 52.10526 -1.95137 41476 ft 483 kts 169°
2026-04-23 08:45 52.03926 -1.93197 41471 ft 481 kts 169°
2026-04-23 08:45 51.97316 -1.91259 41483 ft 484 kts 169°
2026-04-23 08:46 51.90721 -1.89331 41468 ft 478 kts 169°
2026-04-23 08:46 51.84227 -1.87439 41456 ft 472 kts 169°
2026-04-23 08:47 51.77758 -1.85559 41462 ft 472 kts 169°
2026-04-23 08:47 51.71286 -1.83684 41462 ft 474 kts 169°
2026-04-23 08:48 51.64788 -1.81807 41458 ft 475 kts 169°
2026-04-23 08:48 51.58280 -1.79932 41461 ft 476 kts 169°
2026-04-23 08:49 51.51744 -1.78054 41455 ft 477 kts 169°
2026-04-23 08:49 51.45205 -1.76182 41447 ft 477 kts 169°
2026-04-23 08:50 51.38666 -1.74315 41429 ft 478 kts 169°
2026-04-23 08:50 51.32154 -1.72460 41423 ft 478 kts 169°
2026-04-23 08:51 51.25600 -1.70600 41426 ft 479 kts 169°
2026-04-23 08:51 51.19037 -1.68741 41432 ft 480 kts 169°
2026-04-23 08:52 51.12459 -1.66884 41432 ft 480 kts 169°
2026-04-23 08:52 51.05873 -1.65039 41426 ft 481 kts 170°
2026-04-23 08:53 50.99271 -1.63273 41421 ft 480 kts 170°
2026-04-23 08:53 50.92687 -1.61541 41418 ft 480 kts 170°
2026-04-23 08:54 50.86101 -1.59804 41417 ft 480 kts 170°
2026-04-23 08:54 50.79512 -1.58064 41395 ft 480 kts 170°
2026-04-23 08:55 50.72914 -1.56324 41388 ft 481 kts 170°
2026-04-23 08:55 50.66303 -1.54585 41392 ft 482 kts 170°
2026-04-23 08:56 50.59669 -1.52845 41382 ft 483 kts 170°
2026-04-23 08:56 50.53034 -1.51112 41377 ft 484 kts 170°
2026-04-23 08:57 50.46387 -1.49379 41373 ft 485 kts 170°
2026-04-23 08:57 50.39722 -1.47647 41363 ft 486 kts 170°
2026-04-23 08:58 50.33086 -1.45927 41367 ft 487 kts 170°
2026-04-23 08:58 50.26356 -1.44188 41375 ft 495 kts 171°
2026-04-23 08:59 50.19605 -1.42449 41356 ft 488 kts 171°
2026-04-23 08:59 50.12887 -1.40723 41365 ft 492 kts 171°
2026-04-23 09:00 50.06127 -1.38991 41356 ft 490 kts 171°
2026-04-23 09:00 49.99422 -1.37278 41364 ft 490 kts 171°
2026-04-23 09:01 49.92668 -1.35558 41345 ft 491 kts 171°
2026-04-23 09:01 49.85936 -1.33847 41344 ft 490 kts 171°
2026-04-23 09:02 49.79226 -1.32147 41345 ft 489 kts 171°
2026-04-23 09:02 49.72503 -1.30449 41352 ft 489 kts 171°
2026-04-23 09:03 49.65763 -1.28751 41345 ft 490 kts 171°
2026-04-23 09:03 49.59029 -1.27059 41329 ft 490 kts 171°
2026-04-23 09:04 49.52307 -1.25375 41338 ft 490 kts 171°
2026-04-23 09:04 49.45596 -1.23699 41331 ft 487 kts 171°
2026-04-23 09:05 49.38939 -1.22040 41319 ft 481 kts 171°
2026-04-23 09:05 49.32380 -1.20409 41310 ft 475 kts 171°
2026-04-23 09:06 49.25864 -1.18791 41313 ft 472 kts 171°
2026-04-23 09:06 49.19372 -1.17121 41319 ft 474 kts 171°
2026-04-23 09:07 49.12845 -1.15422 41318 ft 478 kts 171°
2026-04-23 09:07 49.06255 -1.13717 41311 ft 483 kts 171°
2026-04-23 09:08 48.99609 -1.12009 41303 ft 486 kts 171°
2026-04-23 09:08 48.92932 -1.10301 41290 ft 486 kts 171°
2026-04-23 09:09 48.86261 -1.08596 41280 ft 485 kts 171°
2026-04-23 09:09 48.79619 -1.06903 41272 ft 483 kts 172°
2026-04-23 09:10 48.69723 -1.04390 41271 ft 479 kts 172°
2026-04-23 09:11 48.63156 -1.02730 41268 ft 478 kts 172°
2026-04-23 09:11 48.56599 -1.01075 41281 ft 477 kts 172°
2026-04-23 09:12 48.50041 -0.99425 41259 ft 478 kts 172°
2026-04-23 09:12 48.43486 -0.97779 41269 ft 478 kts 172°
2026-04-23 09:13 48.36922 -0.96137 41249 ft 478 kts 172°
2026-04-23 09:13 48.30400 -0.94507 41267 ft 478 kts 172°
2026-04-23 09:14 48.23833 -0.92872 41264 ft 479 kts 172°
2026-04-23 09:14 48.17261 -0.91239 41263 ft 479 kts 172°
2026-04-23 09:15 48.10690 -0.89611 41254 ft 479 kts 172°
2026-04-23 09:15 48.04117 -0.87986 41266 ft 479 kts 172°
2026-04-23 09:16 47.97545 -0.86366 41264 ft 478 kts 172°
2026-04-23 09:16 47.90976 -0.84751 41259 ft 478 kts 172°
2026-04-23 09:17 47.84413 -0.83141 41256 ft 478 kts 172°
2026-04-23 09:17 47.77857 -0.81538 41241 ft 478 kts 172°
2026-04-23 09:18 47.71300 -0.79938 41237 ft 477 kts 172°
2026-04-23 09:18 47.64744 -0.78343 41224 ft 477 kts 172°
2026-04-23 09:19 47.58188 -0.76751 41228 ft 477 kts 172°
2026-04-23 09:19 47.51633 -0.75164 41221 ft 477 kts 172°
2026-04-23 09:20 47.45083 -0.73582 41222 ft 477 kts 172°
2026-04-23 09:20 47.38532 -0.72003 41220 ft 477 kts 172°
2026-04-23 09:21 47.31991 -0.70431 41216 ft 476 kts 172°
2026-04-23 09:21 47.25447 -0.68862 41217 ft 476 kts 172°
2026-04-23 09:22 47.18911 -0.67299 41214 ft 476 kts 172°
2026-04-23 09:22 47.12420 -0.65735 41208 ft 476 kts 172°
2026-04-23 09:23 47.05885 -0.64150 41209 ft 476 kts 172°
2026-04-23 09:23 46.99355 -0.62570 41204 ft 475 kts 172°
2026-04-23 09:24 46.92831 -0.60998 41212 ft 475 kts 172°
2026-04-23 09:24 46.86309 -0.59432 41204 ft 475 kts 172°
2026-04-23 09:25 46.79780 -0.57868 41201 ft 475 kts 172°
2026-04-23 09:25 46.73254 -0.56307 41196 ft 475 kts 172°
2026-04-23 09:26 46.66732 -0.54752 41197 ft 475 kts 172°
2026-04-23 09:26 46.60212 -0.53201 41194 ft 475 kts 172°
2026-04-23 09:27 46.53696 -0.51654 41193 ft 475 kts 172°
2026-04-23 09:27 46.47175 -0.50111 41189 ft 475 kts 172°
2026-04-23 09:28 46.40656 -0.48571 41184 ft 475 kts 172°
2026-04-23 09:28 46.34135 -0.47036 41184 ft 475 kts 172°
2026-04-23 09:29 46.28717 -0.45762 41183 ft 475 kts 172°
2026-04-23 09:29 46.22186 -0.44230 41177 ft 475 kts 172°
2026-04-23 09:30 46.15662 -0.42703 41174 ft 476 kts 172°
2026-04-23 09:30 46.09128 -0.41178 41172 ft 476 kts 172°
2026-04-23 09:31 46.02588 -0.39655 41169 ft 476 kts 172°
2026-04-23 09:31 45.96046 -0.38135 41171 ft 476 kts 172°
2026-04-23 09:32 45.89507 -0.36619 41176 ft 476 kts 172°
2026-04-23 09:32 45.82955 -0.35104 41175 ft 476 kts 172°
2026-04-23 09:33 45.76414 -0.33595 41183 ft 476 kts 172°
2026-04-23 09:33 45.69859 -0.32165 41183 ft 475 kts 177°
2026-04-23 09:34 45.63312 -0.32717 41191 ft 470 kts 193°
2026-04-23 09:34 45.57097 -0.35430 41181 ft 467 kts 202°
2026-04-23 09:34 45.54003 -0.37020 40370 ft 478 kts 203°
2026-04-23 09:35 45.50881 -0.38632 39709 ft 476 kts 203°
2026-04-23 09:35 45.47765 -0.40222 39089 ft 474 kts 203°
2026-04-23 09:35 45.44671 -0.41779 38521 ft 469 kts 203°
2026-04-23 09:35 45.41610 -0.43303 37940 ft 464 kts 203°
2026-04-23 09:36 45.38578 -0.44802 37419 ft 458 kts 203°
2026-04-23 09:36 45.35583 -0.46278 36918 ft 453 kts 203°
2026-04-23 09:36 45.32629 -0.47731 36408 ft 448 kts 203°
2026-04-23 09:36 45.29694 -0.49173 35913 ft 444 kts 203°
2026-04-23 09:37 45.26793 -0.50599 35416 ft 440 kts 203°
2026-04-23 09:37 45.23910 -0.52015 34918 ft 437 kts 203°
2026-04-23 09:37 45.21048 -0.53419 34426 ft 434 kts 203°
2026-04-23 09:37 45.18242 -0.54795 33889 ft 431 kts 203°
2026-04-23 09:38 45.15414 -0.56181 33347 ft 428 kts 203°
2026-04-23 09:38 45.12612 -0.57552 32816 ft 424 kts 203°
2026-04-23 09:38 45.09836 -0.58908 32337 ft 421 kts 203°
2026-04-23 09:38 45.07077 -0.60255 31849 ft 417 kts 203°
2026-04-23 09:39 45.04342 -0.61588 31365 ft 414 kts 203°
2026-04-23 09:39 45.01632 -0.62908 30905 ft 411 kts 203°
2026-04-23 09:39 44.98970 -0.64204 30442 ft 408 kts 203°
2026-04-23 09:39 44.96291 -0.65507 29933 ft 406 kts 203°
2026-04-23 09:40 44.93634 -0.66798 29405 ft 402 kts 203°
2026-04-23 09:40 44.91004 -0.68074 28941 ft 398 kts 203°
2026-04-23 09:40 44.88397 -0.69339 28455 ft 395 kts 203°
2026-04-23 09:40 44.85807 -0.70593 27995 ft 391 kts 203°
2026-04-23 09:41 44.83240 -0.71835 27538 ft 388 kts 203°
2026-04-23 09:41 44.80686 -0.73040 27089 ft 386 kts 202°
2026-04-23 09:41 44.78171 -0.74174 26646 ft 384 kts 201°
2026-04-23 09:41 44.75633 -0.75299 26208 ft 381 kts 201°
2026-04-23 09:42 44.73109 -0.76414 25777 ft 379 kts 201°
2026-04-23 09:42 44.70595 -0.77528 25338 ft 377 kts 201°
2026-04-23 09:42 44.68099 -0.78636 24914 ft 376 kts 201°
2026-04-23 09:42 44.65607 -0.79743 24476 ft 374 kts 201°
2026-04-23 09:43 44.63131 -0.80844 24060 ft 373 kts 201°
2026-04-23 09:43 44.60658 -0.81946 23598 ft 372 kts 201°
2026-04-23 09:43 44.58195 -0.83042 23084 ft 371 kts 201°
2026-04-23 09:43 44.55743 -0.84133 22627 ft 368 kts 201°
2026-04-23 09:44 44.53343 -0.85199 22206 ft 365 kts 201°
2026-04-23 09:44 44.50931 -0.86270 21770 ft 362 kts 201°
2026-04-23 09:44 44.48545 -0.87328 21345 ft 359 kts 200°
2026-04-23 09:44 44.46180 -0.88376 20925 ft 355 kts 200°
2026-04-23 09:45 44.43827 -0.89418 20511 ft 352 kts 200°
2026-04-23 09:45 44.41499 -0.90448 20092 ft 350 kts 200°
2026-04-23 09:45 44.39190 -0.91468 19682 ft 347 kts 200°
2026-04-23 09:45 44.36900 -0.92480 19258 ft 345 kts 200°
2026-04-23 09:46 44.34649 -0.93475 18853 ft 343 kts 200°
2026-04-23 09:46 44.33303 -0.94068 18615 ft 341 kts 199°
2026-04-23 09:46 44.31040 -0.95063 18150 ft 341 kts 199°
2026-04-23 09:46 44.28789 -0.96054 17708 ft 338 kts 199°
2026-04-23 09:47 44.26560 -0.97031 17306 ft 334 kts 199°
2026-04-23 09:47 44.24347 -0.97997 16872 ft 332 kts 199°
2026-04-23 09:47 44.22151 -0.98970 16457 ft 329 kts 199°
2026-04-23 09:47 44.19979 -0.99926 16049 ft 326 kts 200°
2026-04-23 09:48 44.17854 -1.00859 15659 ft 323 kts 199°
2026-04-23 09:48 44.15722 -1.01798 15250 ft 320 kts 199°
2026-04-23 09:48 44.13604 -1.02723 14893 ft 318 kts 199°
2026-04-23 09:48 44.11501 -1.03642 14485 ft 315 kts 199°
2026-04-23 09:49 44.09412 -1.04553 14077 ft 313 kts 199°
2026-04-23 09:49 44.07350 -1.05456 13689 ft 308 kts 199°
2026-04-23 09:49 44.05319 -1.06344 13273 ft 304 kts 199°
2026-04-23 09:49 44.03317 -1.07219 12886 ft 299 kts 199°
2026-04-23 09:50 44.01372 -1.08069 12524 ft 295 kts 198°
2026-04-23 09:50 43.99432 -1.08914 12167 ft 290 kts 198°
2026-04-23 09:50 43.97523 -1.09745 11812 ft 285 kts 198°
2026-04-23 09:50 43.95643 -1.10563 11461 ft 281 kts 198°
2026-04-23 09:51 43.93787 -1.11370 11106 ft 277 kts 198°
2026-04-23 09:51 43.91962 -1.12164 10782 ft 273 kts 197°
2026-04-23 09:51 43.90163 -1.12946 10449 ft 269 kts 197°
2026-04-23 09:51 43.88398 -1.13711 10241 ft 261 kts 197°
2026-04-23 09:52 43.86720 -1.14440 10081 ft 253 kts 197°
2026-04-23 09:52 43.85030 -1.15172 9781 ft 256 kts 197°
2026-04-23 09:52 43.83316 -1.15915 9459 ft 259 kts 197°
2026-04-23 09:52 43.81590 -1.16663 9155 ft 261 kts 197°
2026-04-23 09:53 43.79867 -1.17408 8839 ft 257 kts 197°
2026-04-23 09:53 43.78177 -1.18139 8535 ft 252 kts 197°
2026-04-23 09:53 43.76522 -1.18856 8239 ft 246 kts 198°
2026-04-23 09:53 43.75073 -1.20050 7947 ft 247 kts 224°
2026-04-23 09:54 43.74121 -1.22049 7670 ft 254 kts 245°
2026-04-23 09:54 43.73515 -1.24344 7392 ft 261 kts 248°
2026-04-23 09:54 43.72914 -1.26713 7075 ft 260 kts 248°
2026-04-23 09:54 43.72320 -1.29056 6753 ft 255 kts 248°
2026-04-23 09:55 43.71735 -1.31346 6445 ft 250 kts 248°
2026-04-23 09:55 43.71157 -1.33587 6143 ft 245 kts 248°
2026-04-23 09:55 43.70580 -1.35805 5857 ft 246 kts 247°
2026-04-23 09:55 43.69992 -1.38056 5560 ft 253 kts 247°
2026-04-23 09:56 43.69382 -1.40384 5204 ft 259 kts 247°
2026-04-23 09:56 43.68732 -1.42670 4950 ft 249 kts 241°
2026-04-23 09:56 43.67936 -1.44720 4992 ft 248 kts 238°
2026-04-23 09:56 43.67075 -1.46814 5001 ft 254 kts 238°
2026-04-23 09:57 43.66207 -1.48944 5004 ft 255 kts 238°
2026-04-23 09:57 43.65349 -1.51080 5002 ft 253 kts 238°
2026-04-23 09:57 43.64502 -1.53205 4990 ft 251 kts 238°
2026-04-23 09:57 43.63683 -1.55270 4986 ft 239 kts 238°
2026-04-23 09:58 43.62905 -1.57235 4982 ft 229 kts 238°
2026-04-23 09:58 43.62098 -1.59122 4938 ft 229 kts 232°
2026-04-23 09:58 43.61181 -1.60846 4757 ft 221 kts 230°
2026-04-23 09:58 43.60271 -1.62497 4576 ft 212 kts 229°
2026-04-23 09:59 43.59399 -1.64090 4410 ft 204 kts 229°
2026-04-23 09:59 43.58558 -1.65640 4271 ft 201 kts 229°
2026-04-23 09:59 43.57726 -1.67181 4131 ft 200 kts 229°
2026-04-23 09:59 43.56898 -1.68718 3973 ft 200 kts 229°
2026-04-23 10:00 43.56075 -1.70247 3825 ft 195 kts 229°
2026-04-23 10:00 43.55299 -1.71696 3725 ft 183 kts 229°
2026-04-23 10:00 43.54547 -1.73062 3552 ft 173 kts 221°
2026-04-23 10:00 43.53537 -1.73816 3402 ft 166 kts 188°
2026-04-23 10:01 43.52390 -1.73898 3262 ft 169 kts 179°
2026-04-23 10:01 43.51201 -1.73878 3100 ft 173 kts 179°
2026-04-23 10:01 43.50002 -1.73851 2910 ft 170 kts 178°
2026-04-23 10:01 43.48876 -1.73825 2783 ft 155 kts 178°
2026-04-23 10:02 43.47828 -1.73749 2603 ft 150 kts 167°
2026-04-23 10:02 43.46970 -1.72949 2500 ft 154 kts 130°
2026-04-23 10:02 43.46638 -1.71555 2372 ft 160 kts 94°
2026-04-23 10:02 43.46674 -1.70014 2286 ft 162 kts 94°
2026-04-23 10:03 43.46681 -1.68484 2183 ft 162 kts 94°
2026-04-23 10:03 43.46694 -1.66980 2082 ft 151 kts 94°
2026-04-23 10:03 43.46707 -1.65582 2047 ft 144 kts 94°
2026-04-23 10:03 43.46717 -1.64189 1998 ft 147 kts 94°
2026-04-23 10:04 43.46732 -1.62771 1861 ft 147 kts 92°
2026-04-23 10:04 43.46750 -1.61368 1602 ft 145 kts 92°
2026-04-23 10:04 43.46767 -1.59991 1320 ft 142 kts 92°
2026-04-23 10:04 43.46785 -1.58651 1034 ft 138 kts 91°
2026-04-23 10:05 43.46803 -1.57331 813 ft 138 kts 90°
2026-04-23 10:05 43.46811 -1.56057 628 ft 134 kts 90°
2026-04-23 10:05 43.46814 -1.54766 433 ft 137 kts 89°
2026-04-23 10:05 43.46824 -1.53460 284 ft 137 kts 88°
2026-04-23 10:06 43.46841 -1.52233 246 ft 112 kts 89°
2026-04-23 10:06 43.46848 -1.51631 245 ft 14 kts 90°
2026-04-23 10:06 43.46848 -1.51553 246 ft 23 kts 89°
2026-04-23 10:06 43.46851 -1.51279 245 ft 25 kts 89°
2026-04-23 10:07 43.46855 -1.51099 246 ft 18 kts 80°
2026-04-23 10:07 43.46883 -1.51003 246 ft 6 kts 70°
2026-04-23 10:07 43.46856 -1.50973 246 ft 6 kts 195°
2026-04-23 10:07 43.46847 -1.51033 246 ft 8 kts 272°
2026-04-23 10:08 43.46850 -1.51129 245 ft 12 kts 272°
2026-04-23 10:08 43.46852 -1.51258 245 ft 15 kts 270°
2026-04-23 10:08 43.46849 -1.51411 246 ft 17 kts 268°
2026-04-23 10:09 43.46845 -1.51789 245 ft 22 kts 270°
2026-04-23 10:09 43.46844 -1.51969 246 ft 15 kts 269°
2026-04-23 10:09 43.46842 -1.52098 246 ft 9 kts 269°
2026-04-23 10:09 43.46883 -1.52167 245 ft 11 kts 343°
2026-04-23 10:10 43.46963 -1.52186 246 ft 13 kts 332°
2026-04-23 10:10 43.46998 -1.52300 246 ft 15 kts 273°
2026-04-23 10:10 43.46997 -1.52453 246 ft 17 kts 269°
2026-04-23 10:10 43.46995 -1.52568 246 ft 19 kts 269°
2026-04-23 10:11 43.46993 -1.52751 246 ft 18 kts 269°
2026-04-23 10:11 43.47002 -1.52853 246 ft 10 kts 303°
2026-04-23 10:11 43.47041 -1.52901 246 ft 7 kts 308°
2026-04-23 10:11 43.47052 -1.52949 246 ft 3 kts 273°
2026-04-23 10:12 43.47054 -1.52981 246 ft 4 kts 283°
2026-04-23 10:12 43.47074 -1.53000 246 ft 4 kts 340°
2026-04-23 10:12 43.47100 -1.53001 246 ft 1 kts
2026-04-23 10:12 43.47117 -1.53001 246 ft 2 kts 360°
2026-04-23 10:13 43.47127 -1.53001 246 ft 1 kts 359°
2026-04-23 10:13 43.47128 -1.53001 246 ft 0 kts 359°